Date,TemperatureHighF,TemperatureAvgF,TemperatureLowF,DewpointHighF,DewpointAvgF,DewpointLowF,HumidityHigh,HumidityAvg,HumidityLow,PressureMaxIn,PressureMinIn,WindSpeedMaxMPH,WindSpeedAvgMPH,GustSpeedMaxMPH,PrecipitationSumIn
2013-3-1,32.7,24.6,16.4,17.6,15.3,11.9,83,68,46,30.33,30.21,11,2,11,0.00
2013-3-2,29.5,18.6,5.6,15.4,10.1,2.3,89,70,47,30.35,30.19,14,2,14,0.00
2013-3-3,32.3,20.0,6.1,11.6,3.3,-5.9,81,52,21,30.19,30.07,9,0,9,0.00
2013-3-4,29.5,24.2,17.2,19.1,11.3,-0.8,78,58,41,30.10,30.02,12,2,13,0.00
2013-3-5,28.1,25.6,23.2,24.5,21.7,17.5,89,85,72,30.23,30.02,11,2,11,0.24
2013-3-6,29.3,23.3,13.4,20.9,16.9,9.8,87,77,61,30.37,30.21,14,4,14,0.00
2013-3-7,34.7,21.0,2.7,19.9,12.6,-1.1,97,71,48,30.44,30.36,10,1,10,0.00
2013-3-8,41.9,30.5,18.6,29.9,23.0,14.5,87,74,61,30.41,30.17,15,2,17,0.00
2013-3-9,37.2,34.5,30.9,34.3,31.2,25.3,90,87,75,30.17,29.72,10,2,10,0.20
2013-3-10,36.8,35.0,30.7,33.9,31.5,28.1,91,87,81,29.90,29.73,11,2,12,0.17
2013-3-11,33.9,29.4,26.3,28.9,25.8,22.0,91,86,79,29.80,29.65,15,3,16,0.42
2013-3-12,30.1,25.1,19.4,23.5,18.2,14.0,89,76,54,30.11,29.76,24,6,24,0.00
2013-3-13,32.0,22.5,13.3,16.2,9.4,5.3,82,59,36,30.33,30.11,17,5,18,0.00
2013-3-14,35.2,25.3,16.1,28.4,20.1,10.6,88,80,69,30.29,30.02,6,1,9,0.00
2013-3-15,36.4,30.3,25.9,31.7,26.1,23.1,92,84,69,30.02,29.84,9,1,9,0.00
2013-3-16,27.2,21.5,15.5,23.4,13.8,6.5,90,73,56,30.20,29.86,18,4,18,0.26
2013-3-17,25.6,16.6,4.2,14.1,6.8,-2.0,76,65,52,30.29,29.99,13,2,13,0.00
2013-3-18,29.2,22.1,16.1,26.4,18.3,11.9,90,85,76,29.99,29.56,25,5,26,0.00
2013-3-19,24.2,16.1,9.5,12.1,7.0,0.9,84,68,52,30.09,29.67,26,12,26,0.31
2013-3-20,20.4,11.2,2.8,6.9,1.4,-4.7,82,64,54,30.13,30.09,23,6,23,0.00
2013-3-21,25.2,13.4,-1.0,12.5,5.7,-4.7,87,72,55,30.14,30.06,12,3,14,0.00
2013-3-22,35.8,26.3,9.1,18.6,14.3,4.5,85,61,47,30.10,30.02,13,3,13,0.00
2013-3-23,40.0,29.0,16.3,24.8,20.3,11.5,89,71,51,30.16,30.06,10,1,10,0.00
2013-3-24,34.1,30.1,26.6,25.8,23.0,18.7,81,75,65,30.10,29.92,13,2,13,0.00
2013-3-25,39.2,29.1,17.4,25.6,20.6,13.8,87,71,51,30.18,29.98,14,2,14,0.00
2013-3-26,38.4,32.1,24.8,26.1,23.0,20.4,84,70,52,30.27,30.18,11,2,11,0.00
2013-3-27,41.4,35.1,27.3,24.3,21.4,18.0,77,59,40,30.32,30.27,15,2,15,0.00
2013-3-28,43.9,32.8,17.7,23.3,19.6,14.2,87,60,39,30.35,30.27,11,2,11,0.00
2013-3-29,48.8,36.4,21.5,27.1,22.4,16.6,83,59,36,30.32,30.12,11,2,11,0.00
2013-3-30,41.6,39.3,34.8,38.9,33.9,26.2,90,82,58,30.12,29.78,20,3,20,0.59
2013-3-31,39.6,34.1,26.6,33.4,25.3,15.1,91,72,41,29.99,29.71,26,6,26,0.00